Home > Weather > Tiruvarur > Past weeks

Flag for India Weather for the Past 2 Weeks in Tiruvarur, Tamil Nadu, India

Now
84 °F

Passing clouds.


Feels Like: 92 °F
Forecast: 83 / 101 °F
Wind: 2 mph from East

Location: Tiruchchirapalli

Current Time: Apr 29, 2016 at 2:07:39 AM

Latest Report: Apr 29, 2016 at 1:30 AM


Visibility: 4 mi

Pressure: 29.77 "Hg

Humidity: 74%

Dew Point: 75 °F

Location of TiruvarurLocation

Historic Weather in Tiruvarur — Graph

°F

Tiruvarur Temperature Yesterday

Maximum temperature yesterday: 104 °F (at 3:00 PM)
Minimum temperature yesterday: 82 °F (at 5:00 AM)
Average temperature yesterday: 92 °F

High & Low Weather Summary for the Past Weeks

 TemperatureHumidityPressure
High108 °F (Apr 22, 3:00 PM)89% (Apr 15, 5:30 AM)29.89 "Hg (Apr 15, 5:30 AM)
Low82 °F (Apr 15, 5:30 AM)30% (Apr 22, 3:00 PM)29.56 "Hg (Apr 24, 3:00 PM)
Average93 °F58%29.75 "Hg
* Reported Apr 14 12:30 AM — Apr 29 1:00 AM, Tiruvarur, Weather by CustomWeather, © 2016

Note: Actual official high and low records may vary slightly from our data, if they occured in-between our weather recording intervals... More about our weather records

Advertising

Tiruvarur Weather History for the Previous 24 Hours

Scroll right to see more
 ConditionsComfort  
Time TempWeatherWind HumidityBarometerVisibility
1:00 AM
Fri, Apr 29
84 °FPassing clouds.3 mph74%29.77 "Hg4 mi
12:30 AM84 °FPassing clouds.2 mph74%29.77 "Hg4 mi
12:00 AM86 °FClear.3 mph70%29.77 "Hg4 mi
11:30 PM
Thu, Apr 28
86 °FClear.5 mph75%29.77 "Hg4 mi
11:00 PM88 °FPassing clouds.6 mph66%29.80 "Hg4 mi
10:30 PM90 °FPassing clouds.6 mph63%29.80 "Hg4 mi
10:00 PM90 °FPassing clouds.6 mph63%29.77 "Hg4 mi
9:30 PM90 °FPassing clouds.7 mph59%29.77 "Hg4 mi
9:00 PM91 °FPassing clouds.6 mph56%29.77 "Hg4 mi
8:30 PM91 °FPassing clouds.9 mph56%29.74 "Hg4 mi
8:00 PM91 °FPassing clouds.6 mph52%29.74 "Hg4 mi
7:30 PM93 °FPassing clouds.9 mph49%29.74 "Hg4 mi
7:00 PM95 °FPassing clouds.9 mph44%29.71 "Hg4 mi
6:30 PM97 °FPassing clouds.10 mph42%29.71 "Hg5 mi
6:00 PM100 °FPassing clouds.12 mph35%29.68 "HgN/A
5:30 PM102 °FPassing clouds.13 mph31%29.68 "HgN/A
5:00 PM102 °FPassing clouds.13 mph31%29.68 "HgN/A
4:30 PM104 °FPassing clouds.9 mph33%29.68 "HgN/A
4:00 PM104 °FScattered clouds.7 mph33%29.68 "HgN/A
3:30 PM104 °FScattered clouds.6 mph33%29.68 "HgN/A
3:00 PM104 °FScattered clouds.5 mph33%29.68 "HgN/A
2:30 PM102 °FScattered clouds.5 mph35%29.71 "HgN/A
1:30 PM102 °FScattered clouds.5 mph37%29.74 "HgN/A
1:00 PM100 °FScattered clouds.5 mph40%29.74 "HgN/A
12:30 PM100 °FScattered clouds.5 mph40%29.77 "HgN/A
11:30 AM99 °FScattered clouds.7 mph44%29.80 "HgN/A
11:00 AM99 °FScattered clouds.6 mph47%29.80 "Hg4 mi
10:30 AM97 °FScattered clouds.5 mph50%29.80 "Hg3 mi
9:30 AM93 °FScattered clouds.3 mph59%29.83 "Hg2 mi
9:00 AM91 °FScattered clouds.5 mph67%29.80 "Hg2 mi
8:30 AM90 °FScattered clouds.5 mph71%29.80 "Hg1 mi
8:00 AM88 °FFog.3 mph70%29.80 "Hg1 mi
7:00 AM86 °FFog.2 mph79%29.80 "Hg1 mi
6:30 AM84 °FFog.2 mph84%29.77 "Hg2 mi
6:00 AM82 °FFog.No wind84%29.77 "Hg2 mi
5:30 AM82 °FFog.No wind84%29.77 "Hg2 mi
5:00 AM82 °FFog.3 mph84%29.77 "Hg3 mi
4:00 AM84 °FFog.2 mph79%29.74 "Hg3 mi
3:30 AM84 °FFog.2 mph79%29.74 "Hg3 mi
3:00 AM84 °FFog.3 mph79%29.74 "Hg3 mi
2:30 AM84 °FPassing clouds.3 mph79%29.77 "Hg3 mi
2:00 AM86 °FHaze.3 mph75%29.77 "Hg3 mi
Weather by CustomWeather, © 2016

See weather overviewHow to use our weather pages